Skip Page Navigation
NASA JPL Caltech
NASA Logo - Jet Propulsion Laboratory + View the NASA Portal
+ Center for Near-Earth Object Studies
JPL Home Earth Solar System Stars & Galaxies Technology
JPL Solar System Dynamics
BODIES ORBITS EPHEMERIDES TOOLS PHYSICAL DATA DISCOVERY FAQ SITE MAP
JPL Small-Body Database Browser
Search: [ help ]  
413306 (2003 UQ233)
Classification: Main-belt Asteroid          SPK-ID: 2413306
Ephemeris | Orbit Diagram | Orbital Elements | Mission Design | Physical Parameters | Discovery Circumstances ]

[ show orbit diagram ]
Orbital Elements at Epoch 2459000.5 (2020-May-31.0) TDB
Reference: JPL 16 (heliocentric ecliptic J2000)
 Element Value Uncertainty (1-sigma)   Units 
e .09647589080030643 6.358e-08  
a 3.067856429597798 3.6231e-08 au
q 2.771882247704903 2.0298e-07 au
i 6.6598674843484 6.6551e-06 deg
node 233.1730860371429 4.8718e-05 deg
peri 168.7105012578319 6.171e-05 deg
M 24.56384873167281 3.363e-05 deg
tp 2458866.580170527244
(2020-Jan-18.08017053)
0.00018358 TDB
period 1962.686675725543
5.37
3.4768e-05
9.519e-08
d
yr
n .1834220430863829 3.2493e-09 deg/d
Q 3.363830611490693 3.9726e-08 au
  Orbit Determination Parameters
   # obs. used (total)      165  
   data-arc span      5943 days (16.27 yr)  
   first obs. used      2003-10-21  
   last obs. used      2020-01-28  
   planetary ephem.      DE431  
   SB-pert. ephem.      SB431-N16  
   condition code      0  
   norm. resid. RMS      .50181  
   source      ORB  
   producer      Otto Matic  
   solution date      2020-Feb-26 06:59:16  

Additional Information
 Earth MOID = 1.7809 au 
 Jupiter MOID = 2.01324 au 
 T_jup = 3.214 
[ hide covariance matrix ]
Orbital Elements at Epoch 2457616.5 (2016-Aug-16.0) TDB
Reference: JPL 16 (heliocentric ecliptic J2000)
 Element Value Uncertainty (1-sigma)   Units 
e .09339763763843233 6.3294e-08  
q 2.786266188426933 2.0088e-07 au
tp 2456896.600379201986
(2014-Aug-27.10037920)
0.00020143 TDB
node 233.2636404231782 4.8917e-05 deg
peri 167.813623298164 6.2905e-05 deg
i 6.639626991240978 6.645e-06 deg
  Orbit Determination Parameters
   # obs. used (total)      165  
   data-arc span      5943 days (16.27 yr)  
   first obs. used      2003-10-21  
   last obs. used      2020-01-28  
   planetary ephem.      DE431  
   SB-pert. ephem.      SB431-N16  
   condition code      0  
   norm. resid. RMS      .50181  
   source      ORB  
   producer      Otto Matic  
   solution date      2020-Feb-26 06:59:16  

Additional Information
 Jupiter MOID = 2.01324 au 
 T_jup = 3.214 
Orbit Covariance (6×6)
  e q tp node peri i
e 4.006157984793515E-15 -1.254165090967946E-14 -4.093889528489934E-12 -1.813439237385977E-14 -8.34333771297189E-13 -6.512760872823372E-16
q -1.254165090967946E-14 4.035116026241553E-14 1.050439868722217E-11 5.604741092471474E-14 2.233922709518723E-12 2.26936229666813E-15
tp -4.093889528489934E-12 1.050439868722217E-11 4.057395256291388E-8 4.377950726497293E-11 7.990580923712372E-9 -2.751493790744203E-12
node -1.813439237385977E-14 5.604741092471474E-14 4.377950726497293E-11 2.392868071034503E-9 -2.368302612745662E-9 -1.216443857150059E-10
peri -8.34333771297189E-13 2.233922709518723E-12 7.990580923712372E-9 -2.368302612745662E-9 3.957070129009342E-9 1.203293700759855E-10
i -6.512760872823372E-16 2.26936229666813E-15 -2.751493790744203E-12 -1.216443857150059E-10 1.203293700759855E-10 4.415642970628511E-11

Ephemeris | Orbit Diagram | Orbital Elements | Mission Design | Physical Parameters | Discovery Circumstances ]

Physical Parameter Table
Parameter Symbol Value Units Sigma Reference Notes
absolute magnitude H 16.3   n/a MPO495097  
diameter diameter 4.924 km 1.588 urn:nasa:pds:neowise_diameters_albedos::2.0[mainbelt] (http://adsabs.harvard.edu/abs/2011ApJ...741...68M)  
geometric albedo albedo 0.024   0.019 urn:nasa:pds:neowise_diameters_albedos::2.0[mainbelt] (http://adsabs.harvard.edu/abs/2011ApJ...741...68M)  

413306 (2003 UQ233)          Discovered 2003-Oct-24 by LINEAR at Socorro
Reference: Last Updated: 2014-11-10

Alternate Designations
 2003 UQ233 = 2010 FJ105 
Ephemeris | Orbit Diagram | Orbital Elements | Mission Design | Physical Parameters | Discovery Circumstances ]
ABOUT SSD CREDITS/AWARDS PRIVACY/COPYRIGHT GLOSSARY LINKS
FirstGov 2020-Aug-13 02:44 UT
(server date/time)  
NASA Home Page
Site Manager:   Ryan S. Park
Webmaster  Alan B. Chamberlin